Location: Unspecified
(0.0000°N, 0.0000°E)
Time: 05:42:15
(UTC+00:00)

METEOR M2 - Pass Details

Date: 10 July 2020
Orbit: 818 x 828 km, 98.5° (Epoch: 13 August)

Event Time Altitude Azimuth Distance (km) Brightness Sun altitude
Exits shadow 18:49:43 12° 97° (E) 2,311 ? -10.2°
Maximum altitude 18:51:25 13° 77° (ENE) 2,201 ? -10.6°
Drops below altitude 10° 18:53:51 10° 50° (NE) 2,422 ? -11.2°
Sets 18:57:31 0° 24° (NNE) 3,352 ? -12.0°
